{"data":{"norad_id":58774,"epoch":"2026-09-20T07:21:51.735456Z","epoch_age_seconds":169255,"freshness":"FRESH","line1":"1 58774U 24011K   26263.30684879  .00001141  00000+0  44910-4 0  9991","line2":"2 58774  53.1625 188.5154 0001061 120.5620 239.5488 15.34392010150082","mean_motion":15.3439201,"eccentricity":0.0001061,"inclination_deg":53.1625,"raan_deg":188.5154,"arg_perigee_deg":120.562,"mean_anomaly_deg":239.5488,"bstar":4.491e-5,"rev_number":15008,"period_min":93.848246772349,"perigee_km":462.00117260482,"apogee_km":463.45280394313,"semimajor_km":6840.863988274,"source":"CELESTRAK","updated_at":"2026-09-21T09:00:33.958264Z"}}